[[{"header":{"parameterUnit":"m.s-1","parameterCategory":1,"la1":30.2991,"la2":30.254,"lo1":-89.0895,"lo2":-89.0444,"dy":0.0017,"dx":0.0017,"nx":28,"ny":28,"refTime":"2023-08-14T09:00:00:Z","depth":0,"parameterNumber":2,"parameterNumberName":"U-component_of_WINDS"},"data":[0,0,0,0,0,0,0,0,0,0,0,0,0,0,0,0,0,0,0,0,0,0,0,0,0,0,0,0,0,0,0,0,0,0,0,0,0,0,0,0,0,0,0,0,0,0,0,0,0,0,0,0,0,0,0,0,0,0,0.0809,0.0809,0,0.0764,0.0764,0.0763,0.0782,0.0783,0.0784,0.0785,0.0735,0.0733,0.073,0,0,0,0,0,0,0,0,0,0,0,0,0,0.091,0.0908,0.0809,0.0809,0.0808,0.0764,0.0763,0.0763,0.0782,0.0783,0.0785,0.0786,0.0736,0.0733,0.073,0,0,0,0,0,0,0,0,0,0,0,0,0,0.0865,0.0907,0.0809,0.0813,0.0812,0.0764,0.0763,0.0763,0.0782,0.0783,0.0785,0.0787,0.0737,0.0733,0.073,0.0675,0,0,0.0719,0.0717,0,0,0,0,0,0,0,0,0.0868,0.0862,0.0813,0.0812,0.0812,0.0781,0.0781,0.0733,0.0781,0.0793,0.0785,0.0787,0.0749,0.0744,0.0732,0.0672,0.067,0.0719,0.0717,0.0715,0.0714,0,0,0,0,0,0,0,0.0871,0.0864,0.0791,0.0812,0.0811,0.0815,0.0811,0.0772,0.0762,0.0792,0.0794,0.0788,0.0749,0.0735,0.0731,0.067,0.0719,0.0716,0.0713,0.0712,0.0563,0.0562,0,0,0,0,0,0,0.0874,0.0866,0.0793,0.079,0.0845,0.0812,0.0807,0.0789,0.0763,0.076,0.0787,0.0789,0.0741,0.0735,0.0729,0.0663,0.0715,0.0712,0.071,0.0565,0.0563,0.0561,0,0,0,0,0,0,0.0877,0.0868,0.0795,0.0828,0.0819,0.0809,0.0788,0.0787,0.0774,0.0759,0.0757,0.0775,0.0742,0.0734,0.0689,0.0662,0.071,0.0707,0.0567,0.0565,0.0562,0.053,0,0,0,0,0,0,0.0879,0.0868,0.0848,0.0828,0.0818,0.0755,0.0786,0.0785,0.0768,0.0771,0.0747,0.0744,0.0742,0.0694,0.0685,0.0658,0.0704,0.057,0.0566,0.0563,0.0534,0.0527,0.0521,0,0,0,0,0,0.0883,0.084,0.0847,0.0838,0.0792,0.0754,0.0748,0.0747,0.0766,0.0745,0.0735,0.0745,0.0667,0.0689,0.0679,0.065,0.0571,0.0567,0.0563,0.0536,0.0528,0.0521,0,0,0,0,0,0,0.0855,0.0837,0.0844,0.0794,0.0775,0.0757,0.073,0.0738,0.0713,0.0716,0.0716,0.0711,0.0664,0.0653,0.0678,0.0596,0.0622,0.0615,0.0605,0.0597,0.059,0.0593,0.0701,0,0,0,0,0,0.0843,0.0814,0.08,0.0757,0.0747,0.074,0.0724,0.0725,0.0706,0.0698,0.0685,0.0664,0.0635,0.0615,0.0588,0.0533,0.0528,0.0508,0.0502,0.0497,0.0491,0.0462,0.0453,0.0548,0.0548,0.0548,0,0,0.0817,0.0804,0.0786,0.0751,0.0737,0.0706,0.0733,0.07,0.0677,0.0692,0.0648,0.0639,0.0616,0.0566,0.0543,0.0555,0.0464,0.0492,0.0488,0.0484,0.0456,0.0447,0.0439,0.0545,0.0545,0.0546,0,0,0.0755,0.0743,0.0706,0.0692,0.0671,0.0667,0.0658,0.0639,0.0633,0.059,0.0601,0.0574,0.0523,0.0507,0.0492,0.0426,0.0434,0.0417,0.0383,0.0354,0.0347,0.034,0.0316,0.0308,0.0412,0.0411,0.0411,0,0.0726,0.0682,0.0685,0.0651,0.0635,0.0649,0.0611,0.0597,0.0567,0.0556,0.0571,0.0509,0.0494,0.0441,0.0425,0.0412,0.0402,0.0419,0.0348,0.0341,0.0335,0.0312,0.0303,0.0409,0.041,0.041,0.041,0,0.0646,0.0616,0.0588,0.0561,0.0542,0.0506,0.0503,0.0484,0.0488,0.0482,0.0438,0.0422,0.0392,0.0379,0.0382,0.0326,0.0335,0.0349,0.0374,0.0324,0.0302,0.0294,0.0407,0.0407,0.0408,0.0408,0,0,0.0562,0.054,0.0529,0.0518,0.0497,0.0472,0.0438,0.041,0.0393,0.0372,0.0343,0.0301,0.0314,0.0297,0.0299,0.0274,0.0223,0.0291,0.0291,0.0278,0.016,0.0148,0.0138,0.0229,0.0228,0.0226,0.0162,0,0.0498,0.0438,0.0441,0.0384,0.0356,0.037,0.034,0.0323,0.0318,0.0292,0.0286,0.0256,0.0277,0.0267,0.0243,0.0234,0.0199,0.0239,0.02,0.0199,0.0204,0.0127,0.0114,0.0054,0.0153,0.0152,0.0151,0,0.0414,0.0393,0.0334,0.0319,0.0307,0.028,0.0255,0.0231,0.0212,0.021,0.0193,0.0199,0.0163,0.0191,0.0141,0.0169,0.0153,0.0147,0.0145,0.014,0.017,0.0119,0.0035,0.0025,0.0138,0.0139,0.014,0,0.0358,0.0315,0.0274,0.0264,0.0245,0.0226,0.0217,0.02,0.0184,0.0162,0.0151,0.0125,0.011,0.0089,0.0088,0.0109,0.0038,0.0066,0.0034,0.0034,0.0017,0.0018,-0.0072,0.0009,0.001,0.001,0.001,0,0.0285,0.0248,0.0249,0.0224,0.0183,0.0187,0.0146,0.0139,0.0125,0.0098,0.0109,0.0083,0.0084,0.0058,0.0057,0.0016,0.0009,0.0006,0.0006,0.0004,0.0004,-0.0007,-0.0004,0.0007,0.0008,0.0008,0.0009,0,0.0214,0.0214,0.017,0.0157,0.0153,0.0123,0.0111,0.0087,0.0084,0.005,0.0042,0.0036,0.0006,0.0004,-0.0032,-0.0032,-0.0082,-0.0077,-0.0076,-0.0075,-0.0107,-0.0104,-0.0209,-0.0222,-0.0131,-0.0132,-0.0132,0,0.0167,0.0139,0.0124,0.0107,0.0098,0.0071,0.0055,0.0058,0.004,0.0019,-0.0003,-0.0031,-0.0054,-0.0102,-0.011,-0.0137,-0.0133,-0.0167,-0.0137,-0.0138,-0.0135,-0.0134,-0.0136,-0.0174,-0.0175,-0.0176,-0.0177,0,0.0083,0.0084,0.0061,0.0038,0.0018,-0.0,-0.0017,-0.0031,-0.003,-0.005,-0.008,-0.0097,-0.0132,-0.016,-0.0186,-0.0196,-0.0187,-0.0186,-0.0195,-0.0198,-0.0196,-0.0198,-0.0093,-0.0184,-0.0183,-0.0183,-0.0182,-0.0182,0.0021,-0.0002,-0.0017,-0.0043,-0.0055,-0.007,-0.0094,-0.0099,-0.0123,-0.015,-0.0146,-0.0179,-0.0195,-0.0228,-0.024,-0.0266,-0.0254,-0.0267,-0.027,-0.0274,-0.0278,-0.019,-0.027,-0.027,-0.027,-0.027,-0.0269,0,-0.0063,-0.0071,-0.0095,-0.0118,-0.0139,-0.0125,-0.0143,-0.0162,-0.019,-0.0205,-0.0227,-0.026,-0.0287,-0.0296,-0.0323,-0.0342,-0.0338,-0.0349,-0.0348,-0.0351,-0.0286,-0.0276,-0.0351,-0.0351,-0.0351,-0.0351,-0.0351,-0.0351,-0.011,-0.0149,-0.0149,-0.0194,-0.0202,-0.0233,-0.0244,-0.0259,-0.027,-0.0308,-0.0329,-0.0334,-0.0347,-0.0374,-0.0398,-0.04,-0.041,-0.0423,-0.0424,-0.0364,-0.0355,-0.0348,-0.0338,-0.0425,-0.0425,-0.0486,-0.0487,-0.0487]},{"header":{"parameterUnit":"m.s-1","parameterCategory":1,"la1":30.2991,"la2":30.254,"lo1":-89.0895,"lo2":-89.0444,"dy":0.0017,"dx":0.0017,"nx":28,"ny":28,"refTime":"2023-08-14T09:00:00:Z","depth":0,"parameterNumber":3,"parameterNumberName":"V-component_of_WINDS"},"data":[0,0,0,0,0,0,0,0,0,0,0,0,0,0,0,0,0,0,0,0,0,0,0,0,0,0,0,0,0,0,0,0,0,0,0,0,0,0,0,0,0,0,0,0,0,0,0,0,0,0,0,0,0,0,0,0,0,0,-3.9512,-3.9511,0,-3.942,-3.9419,-3.9418,-3.9312,-3.931,-3.9308,-3.9307,-3.9209,-3.9208,-3.9207,0,0,0,0,0,0,0,0,0,0,0,0,0,-3.9592,-3.9591,-3.9512,-3.9511,-3.951,-3.942,-3.9419,-3.9417,-3.9312,-3.931,-3.9308,-3.9306,-3.9209,-3.9208,-3.9207,0,0,0,0,0,0,0,0,0,0,0,0,0,-3.9535,-3.9591,-3.9512,-3.9446,-3.944,-3.942,-3.9419,-3.9417,-3.9312,-3.931,-3.9307,-3.9305,-3.921,-3.9208,-3.9206,-3.9243,0,0,-3.9201,-3.92,0,0,0,0,0,0,0,0,-3.9538,-3.9532,-3.9457,-3.9451,-3.9443,-3.9375,-3.9411,-3.9359,-3.9313,-3.9361,-3.9307,-3.9304,-3.9266,-3.9259,-3.9247,-3.9239,-3.9234,-3.9201,-3.92,-3.9199,-3.9199,0,0,0,0,0,0,0,-3.9542,-3.9535,-3.9475,-3.9456,-3.9448,-3.942,-3.9409,-3.94,-3.9327,-3.9356,-3.9348,-3.9339,-3.9261,-3.9249,-3.9244,-3.9233,-3.9201,-3.92,-3.9198,-3.9198,-3.9246,-3.9248,0,0,0,0,0,0,-3.9557,-3.9539,-3.9478,-3.9473,-3.9486,-3.942,-3.9408,-3.9399,-3.9327,-3.9314,-3.9341,-3.9334,-3.9253,-3.9246,-3.924,-3.9276,-3.9199,-3.9198,-3.9197,-3.9244,-3.9246,-3.9249,0,0,0,0,0,0,-3.9559,-3.9552,-3.9482,-3.9504,-3.9493,-3.9422,-3.9412,-3.9399,-3.9386,-3.9316,-3.9302,-3.9342,-3.9251,-3.9243,-3.9243,-3.9271,-3.9197,-3.9195,-3.9241,-3.9244,-3.9248,-3.9349,0,0,0,0,0,0,-3.9561,-3.9554,-3.9568,-3.9505,-3.9492,-3.9488,-3.9414,-3.9398,-3.9384,-3.9374,-3.9313,-3.9301,-3.9248,-3.9246,-3.9241,-3.9267,-3.9194,-3.9238,-3.9242,-3.9246,-3.9343,-3.9356,-3.9367,0,0,0,0,0,-3.9565,-3.9601,-3.957,-3.9563,-3.9509,-3.949,-3.9482,-3.9423,-3.9387,-3.9399,-3.9354,-3.9303,-3.9269,-3.9247,-3.924,-3.9267,-3.9236,-3.9241,-3.9246,-3.9338,-3.9353,-3.9367,0,0,0,0,0,0,-3.9669,-3.9591,-3.9556,-3.9573,-3.9539,-3.9472,-3.9487,-3.9442,-3.9416,-3.9408,-3.9334,-3.9321,-3.9329,-3.9298,-3.9274,-3.9296,-3.9245,-3.9249,-3.9317,-3.9331,-3.9342,-3.9349,-3.9193,0,0,0,0,0,-3.9694,-3.9686,-3.9618,-3.9639,-3.9624,-3.9559,-3.9549,-3.9505,-3.9467,-3.9451,-3.9406,-3.9369,-3.935,-3.9339,-3.9317,-3.9338,-3.9322,-3.9353,-3.9365,-3.9375,-3.9379,-3.9384,-3.9396,-3.9266,-3.9266,-3.9266,0,0,-3.9745,-3.9702,-3.9701,-3.9659,-3.9628,-3.962,-3.9548,-3.9543,-3.9535,-3.945,-3.9447,-3.9413,-3.9366,-3.9376,-3.9378,-3.935,-3.9411,-3.9382,-3.939,-3.9388,-3.939,-3.9403,-3.9414,-3.9269,-3.9269,-3.9268,0,0,-3.9834,-3.9802,-3.9814,-3.9784,-3.9738,-3.9694,-3.9697,-3.9637,-3.9611,-3.9607,-3.9542,-3.9531,-3.95,-3.9469,-3.9449,-3.9524,-3.9474,-3.9519,-3.958,-3.9586,-3.9596,-3.9605,-3.9629,-3.9638,-3.9524,-3.9524,-3.9524,0,-3.9903,-3.989,-3.9826,-3.9825,-3.9807,-3.9731,-3.9741,-3.9715,-3.9664,-3.9652,-3.9622,-3.958,-3.9543,-3.9543,-3.9561,-3.9549,-3.9548,-3.9525,-3.96,-3.9608,-3.9615,-3.9637,-3.9646,-3.9529,-3.9529,-3.9528,-3.9528,0,-3.9975,-3.9967,-3.9983,-3.9936,-3.9919,-3.9925,-3.986,-3.9851,-3.9809,-3.9767,-3.9762,-3.9716,-3.9682,-3.9679,-3.9638,-3.9672,-3.9656,-3.9615,-3.956,-3.9634,-3.9653,-3.9661,-3.9537,-3.9535,-3.9534,-3.9532,0,0,-4.0127,-4.0044,-4.0051,-4.0027,-3.997,-3.9961,-3.9961,-3.9929,-3.9921,-3.9888,-3.9884,-3.9859,-3.9819,-3.9797,-3.9751,-3.9757,-3.9815,-3.9713,-3.9711,-3.9731,-3.9845,-3.9876,-3.9887,-3.9782,-3.9784,-3.9785,-3.9848,0,-4.0204,-4.0201,-4.0143,-4.0156,-4.0145,-4.0072,-4.0071,-4.0034,-3.9995,-3.9979,-3.9935,-3.9917,-3.9868,-3.9853,-3.9855,-3.9808,-3.9836,-3.9802,-3.9775,-3.9775,-3.9787,-3.9897,-3.993,-3.9992,-3.9856,-3.9857,-3.9858,0,-4.0293,-4.0265,-4.0277,-4.0217,-4.021,-4.0211,-4.0176,-4.0162,-4.0118,-4.0089,-4.0063,-4.0011,-4.0004,-3.9954,-3.9941,-3.9919,-3.9904,-3.9879,-3.988,-3.9874,-3.982,-3.9891,-4.0011,-4.002,-3.987,-3.9869,-3.9868,0,-4.0399,-4.0365,-4.0366,-4.0349,-4.028,-4.0282,-4.0252,-4.0206,-4.0189,-4.0158,-4.0146,-4.0114,-4.0095,-4.007,-4.0009,-3.998,-4.0002,-3.9949,-3.9975,-3.9976,-3.9982,-3.9982,-4.0099,-3.9977,-3.9976,-3.9976,-3.9976,0,-4.0489,-4.0499,-4.0413,-4.0414,-4.0421,-4.0354,-4.0362,-4.0326,-4.0285,-4.0275,-4.0209,-4.0201,-4.0123,-4.0105,-4.0057,-4.0052,-4.0045,-4.0018,-4.0005,-4.0023,-4.0026,-4.0011,-4.0004,-3.9979,-3.9978,-3.9978,-3.9977,0,-4.0609,-4.0552,-4.0549,-4.0483,-4.0467,-4.0475,-4.0417,-4.0414,-4.037,-4.0359,-4.0352,-4.0283,-4.0258,-4.0196,-4.0154,-4.0122,-4.0128,-4.0106,-4.0144,-4.0135,-4.0164,-4.0161,-4.0273,-4.0283,-4.0158,-4.0159,-4.016,0,-4.0669,-4.0675,-4.061,-4.0599,-4.0573,-4.0558,-4.054,-4.0473,-4.0458,-4.0406,-4.0408,-4.0379,-4.0351,-4.0314,-4.0259,-4.0226,-4.02,-4.0241,-4.0194,-4.0211,-4.0197,-4.0197,-4.0195,-4.0251,-4.0253,-4.0255,-4.0256,0,-4.0782,-4.0753,-4.0732,-4.07,-4.0682,-4.0653,-4.0621,-4.0616,-4.054,-4.0525,-4.05,-4.0479,-4.0436,-4.0406,-4.0364,-4.033,-4.0279,-4.0271,-4.0275,-4.0292,-4.0313,-4.0299,-4.0169,-4.0268,-4.0267,-4.0266,-4.0266,-4.0265,-4.0871,-4.0872,-4.0826,-4.0803,-4.0772,-4.0743,-4.0736,-4.0691,-4.067,-4.0631,-4.0592,-4.057,-4.0522,-4.046,-4.043,-4.0409,-4.0383,-4.039,-4.0391,-4.0393,-4.04,-4.0318,-4.0402,-4.0401,-4.0401,-4.0401,-4.04,0,-4.0978,-4.0945,-4.0925,-4.0882,-4.0864,-4.0819,-4.078,-4.0767,-4.0749,-4.071,-4.0684,-4.0653,-4.0623,-4.0564,-4.0528,-4.0522,-4.0498,-4.0515,-4.0513,-4.0506,-4.0427,-4.0426,-4.0535,-4.0535,-4.0535,-4.0535,-4.0535,-4.0535,-4.1031,-4.1029,-4.0995,-4.0975,-4.094,-4.0919,-4.0901,-4.0872,-4.084,-4.0809,-4.0784,-4.0747,-4.0698,-4.0658,-4.0627,-4.061,-4.0598,-4.0622,-4.0598,-4.0525,-4.0512,-4.05,-4.0498,-4.0621,-4.0621,-4.0678,-4.0679,-4.0679]}]]